status,avgMeasuredTime,avgSpeed,extID,medianMeasuredTime,TIMESTAMP,vehicleCount,_id,REPORT_ID
OK,146,55,949,146,2014-08-01T08:00:00,4,20747004,192520
OK,142,56,949,142,2014-08-01T08:10:00,0,20747826,192520
OK,142,56,949,142,2014-08-01T08:15:00,0,20748275,192520
OK,152,53,949,152,2014-08-01T08:20:00,1,20748724,192520
OK,152,53,949,152,2014-08-01T08:25:00,0,20749173,192520
OK,148,54,949,148,2014-08-01T08:30:00,1,20749622,192520
OK,148,54,949,148,2014-08-01T08:35:00,1,20750071,192520
OK,148,54,949,148,2014-08-01T08:40:00,0,20750520,192520
OK,148,54,949,148,2014-08-01T08:45:00,0,20750969,192520
OK,148,54,949,148,2014-08-01T08:50:00,0,20751418,192520
OK,164,49,949,164,2014-08-01T08:55:00,1,20751867,192520
OK,164,49,949,164,2014-08-01T09:00:00,1,20752316,192520
OK,146,55,949,146,2014-08-01T09:05:00,1,20752765,192520
OK,146,55,949,146,2014-08-01T09:10:00,1,20753214,192520
OK,146,55,949,146,2014-08-01T09:20:00,0,20754112,192520
OK,145,55,949,145,2014-08-01T09:25:00,1,20754561,192520
OK,150,53,949,150,2014-08-01T09:30:00,1,20755010,192520
OK,151,53,949,151,2014-08-01T09:35:00,2,20755459,192520
OK,152,53,949,152,2014-08-01T09:40:00,1,20755908,192520
OK,151,53,949,151,2014-08-01T09:45:00,1,20756357,192520
OK,154,52,949,154,2014-08-01T09:50:00,2,20756806,192520
OK,149,54,949,149,2014-08-01T09:55:00,3,20757255,192520
OK,149,54,949,149,2014-08-01T10:00:00,3,20757704,192520
OK,164,49,949,164,2014-08-01T10:05:00,1,20758153,192520
OK,141,57,949,141,2014-08-01T10:15:00,1,20759051,192520
OK,141,57,949,141,2014-08-01T10:20:00,0,20759500,192520
OK,145,55,949,145,2014-08-01T10:25:00,1,20759949,192520
OK,141,57,949,141,2014-08-01T10:30:00,2,20760398,192520
OK,137,59,949,137,2014-08-01T10:35:00,1,20760847,192520
OK,149,54,949,149,2014-08-01T10:40:00,1,20761296,192520
OK,149,54,949,149,2014-08-01T10:45:00,1,20761745,192520
OK,149,54,949,149,2014-08-01T10:50:00,0,20762194,192520
OK,148,54,949,148,2014-08-01T10:55:00,1,20762643,192520
OK,148,54,949,148,2014-08-01T11:00:00,5,20763092,192520
OK,148,54,949,148,2014-08-01T11:05:00,4,20763541,192520
OK,147,55,949,147,2014-08-01T11:10:00,3,20763990,192520
OK,147,55,949,147,2014-08-01T11:15:00,3,20764438,192520
OK,131,61,949,131,2014-08-01T11:20:00,1,20764887,192520
OK,143,56,949,143,2014-08-01T11:25:00,2,20765336,192520
OK,155,52,949,155,2014-08-01T11:30:00,1,20765785,192520
OK,181,44,949,181,2014-08-01T11:35:00,1,20766234,192520
OK,175,46,949,175,2014-08-01T11:40:00,3,20766683,192520
OK,143,56,949,143,2014-08-01T11:45:00,3,20767132,192520
OK,119,68,949,119,2014-08-01T11:50:00,2,20767581,192520
OK,124,65,949,124,2014-08-01T11:55:00,1,20768030,192520
OK,195,41,949,195,2014-08-01T12:00:00,2,20768479,192520
OK,166,48,949,166,2014-08-01T12:10:00,4,20769377,192520
OK,161,50,949,161,2014-08-01T12:15:00,4,20769826,192520
OK,156,51,949,156,2014-08-01T12:20:00,3,20770275,192520
OK,242,33,949,242,2014-08-01T12:25:00,1,20770724,192520
OK,242,33,949,242,2014-08-01T12:30:00,1,20771173,192520
OK,142,56,949,142,2014-08-01T12:35:00,1,20771622,192520
OK,142,56,949,142,2014-08-01T12:40:00,1,20772071,192520
OK,142,56,949,142,2014-08-01T12:45:00,0,20772520,192520
OK,151,53,949,151,2014-08-01T12:50:00,3,20772969,192520
OK,151,53,949,151,2014-08-01T12:55:00,5,20773418,192520
OK,143,56,949,143,2014-08-01T13:00:00,2,20773867,192520
OK,152,53,949,152,2014-08-01T13:05:00,2,20774316,192520
OK,152,53,949,152,2014-08-01T13:10:00,2,20774765,192520
OK,150,53,949,150,2014-08-01T13:15:00,2,20775214,192520
OK,151,53,949,151,2014-08-01T13:20:00,5,20775663,192520
OK,157,51,949,157,2014-08-01T13:25:00,5,20776112,192520
OK,166,48,949,166,2014-08-01T13:30:00,5,20776561,192520
OK,168,48,949,168,2014-08-01T13:35:00,7,20777010,192520
OK,168,48,949,168,2014-08-01T13:40:00,5,20777459,192520
OK,157,51,949,157,2014-08-01T13:45:00,2,20777908,192520
OK,159,50,949,159,2014-08-01T13:50:00,2,20778357,192520
OK,151,53,949,151,2014-08-01T14:00:00,1,20779255,192520
OK,151,53,949,151,2014-08-01T14:05:00,0,20779704,192520
OK,140,57,949,140,2014-08-01T14:10:00,1,20780153,192520
OK,148,54,949,148,2014-08-01T14:15:00,2,20780602,192520
OK,142,56,949,142,2014-08-01T14:20:00,2,20781051,192520
OK,192,42,949,192,2014-08-01T14:25:00,5,20781500,192520
OK,199,40,949,199,2014-08-01T14:30:00,4,20781949,192520
OK,164,49,949,164,2014-08-01T14:35:00,0,20782398,192520
OK,164,49,949,164,2014-08-01T14:40:00,0,20782847,192520
OK,164,49,949,164,2014-08-01T14:45:00,0,20783296,192520
OK,141,57,949,141,2014-08-01T14:50:00,1,20783745,192520
OK,151,53,949,151,2014-08-01T15:00:00,2,20784643,192520
OK,151,53,949,151,2014-08-01T15:05:00,2,20785092,192520
OK,151,53,949,151,2014-08-01T15:10:00,0,20785541,192520
OK,140,57,949,140,2014-08-01T15:15:00,1,20785990,192520
OK,140,57,949,140,2014-08-01T15:20:00,1,20786439,192520
OK,140,57,949,140,2014-08-01T15:25:00,0,20786888,192520
OK,140,57,949,140,2014-08-01T15:30:00,0,20787337,192520
OK,139,58,949,139,2014-08-01T15:35:00,1,20787786,192520
OK,139,58,949,139,2014-08-01T15:40:00,0,20788235,192520
OK,139,58,949,139,2014-08-01T15:45:00,0,20788684,192520
OK,139,58,949,139,2014-08-01T15:50:00,0,20789133,192520
OK,130,62,949,130,2014-08-01T15:55:00,1,20789582,192520
OK,130,62,949,130,2014-08-01T16:00:00,1,20790031,192520
OK,130,62,949,130,2014-08-01T16:05:00,0,20790480,192520
OK,145,55,949,145,2014-08-01T16:10:00,1,20790929,192520
OK,145,55,949,145,2014-08-01T16:15:00,1,20791378,192520
OK,146,55,949,146,2014-08-01T16:20:00,1,20791827,192520
OK,146,55,949,146,2014-08-01T16:25:00,0,20792276,192520
OK,146,55,949,146,2014-08-01T16:30:00,0,20792725,192520
OK,146,55,949,146,2014-08-01T16:35:00,0,20793174,192520
OK,146,55,949,146,2014-08-01T16:40:00,0,20793623,192520
OK,146,55,949,146,2014-08-01T16:45:00,0,20794072,192520
OK,146,55,949,146,2014-08-01T16:50:00,0,20794521,192520
OK,146,55,949,146,2014-08-01T16:55:00,0,20794970,192520
OK,146,55,949,146,2014-08-01T17:00:00,0,20795419,192520
OK,146,55,949,146,2014-08-01T17:05:00,0,20795868,192520
OK,136,59,949,136,2014-08-01T17:10:00,2,20796317,192520
OK,113,71,949,113,2014-08-01T17:15:00,1,20796766,192520
OK,113,71,949,113,2014-08-01T17:20:00,0,20797215,192520
OK,113,71,949,113,2014-08-01T17:25:00,0,20797664,192520
OK,113,71,949,113,2014-08-01T17:30:00,0,20798113,192520
OK,113,71,949,113,2014-08-01T17:35:00,0,20798562,192520
OK,113,71,949,113,2014-08-01T17:40:00,0,20799011,192520
OK,133,60,949,133,2014-08-01T17:45:00,1,20799460,192520
OK,135,59,949,135,2014-08-01T17:50:00,2,20799909,192520
OK,141,57,949,141,2014-08-01T17:55:00,1,20800358,192520
OK,141,57,949,141,2014-08-01T18:00:00,0,20800807,192520
OK,141,57,949,141,2014-08-01T18:05:00,0,20801256,192520
OK,141,57,949,141,2014-08-01T18:10:00,0,20801705,192520
OK,141,57,949,141,2014-08-01T18:15:00,0,20802154,192520
OK,141,57,949,141,2014-08-01T18:20:00,0,20802603,192520
OK,141,57,949,141,2014-08-01T18:25:00,0,20803052,192520
OK,141,57,949,141,2014-08-01T18:30:00,0,20803501,192520
OK,141,57,949,141,2014-08-01T18:35:00,0,20803950,192520
OK,104,77,949,104,2014-08-01T18:40:00,1,20804399,192520
OK,104,77,949,104,2014-08-01T18:45:00,0,20804848,192520
OK,104,77,949,104,2014-08-01T18:50:00,0,20805297,192520
OK,104,77,949,104,2014-08-01T18:55:00,0,20805746,192520
OK,104,77,949,104,2014-08-01T19:00:00,0,20806195,192520
OK,104,77,949,104,2014-08-01T19:05:00,0,20806644,192520
OK,104,77,949,104,2014-08-01T19:10:00,0,20807093,192520
OK,135,59,949,135,2014-08-01T19:15:00,2,20807542,192520
OK,136,59,949,136,2014-08-01T19:20:00,3,20807991,192520
OK,145,55,949,145,2014-08-01T19:25:00,1,20808440,192520
OK,145,55,949,145,2014-08-01T19:30:00,0,20808889,192520
OK,145,55,949,145,2014-08-01T19:35:00,0,20809338,192520
OK,110,73,949,110,2014-08-01T19:40:00,1,20809787,192520
OK,110,73,949,110,2014-08-01T19:45:00,1,20810236,192520
OK,110,73,949,110,2014-08-01T19:50:00,0,20810685,192520
OK,110,73,949,110,2014-08-01T19:55:00,0,20811134,192520
OK,110,73,949,110,2014-08-01T22:00:00,0,20816863,192520
OK,110,73,949,110,2014-08-02T00:00:00,0,20823302,192520
OK,110,73,949,110,2014-08-02T00:05:00,0,20823751,192520
OK,110,73,949,110,2014-08-02T00:10:00,0,20824200,192520
OK,154,52,949,154,2014-08-02T00:15:00,0,20824649,192520
OK,154,52,949,154,2014-08-02T00:20:00,0,20825098,192520
OK,154,52,949,154,2014-08-02T00:25:00,0,20825547,192520
OK,154,52,949,154,2014-08-02T00:30:00,0,20825996,192520
OK,154,52,949,154,2014-08-02T00:35:00,0,20826445,192520
OK,154,52,949,154,2014-08-02T00:40:00,0,20826894,192520
OK,154,52,949,154,2014-08-02T00:45:00,0,20827343,192520
OK,154,52,949,154,2014-08-02T00:50:00,0,20827792,192520
OK,154,52,949,154,2014-08-02T00:55:00,0,20828241,192520
OK,154,52,949,154,2014-08-02T01:00:00,0,20828690,192520
OK,154,52,949,154,2014-08-02T01:05:00,0,20829139,192520
OK,154,52,949,154,2014-08-02T01:10:00,0,20829588,192520
OK,154,52,949,154,2014-08-02T01:15:00,0,20830037,192520
OK,154,52,949,154,2014-08-02T01:20:00,0,20830486,192520
OK,154,52,949,154,2014-08-02T01:25:00,0,20830935,192520
OK,154,52,949,154,2014-08-02T01:30:00,0,20831384,192520
OK,154,52,949,154,2014-08-02T01:35:00,0,20831833,192520
OK,154,52,949,154,2014-08-02T01:40:00,0,20832282,192520
OK,154,52,949,154,2014-08-02T01:45:00,0,20832731,192520
OK,154,52,949,154,2014-08-02T01:50:00,0,20833180,192520
OK,154,52,949,154,2014-08-02T01:55:00,0,20833629,192520
OK,154,52,949,154,2014-08-02T02:00:00,0,20834078,192520
OK,154,52,949,154,2014-08-02T02:05:00,0,20834527,192520
OK,154,52,949,154,2014-08-02T02:10:00,0,20834976,192520
OK,154,52,949,154,2014-08-02T02:15:00,0,20835425,192520
OK,154,52,949,154,2014-08-02T02:20:00,0,20835874,192520
OK,154,52,949,154,2014-08-02T02:25:00,0,20836323,192520
OK,154,52,949,154,2014-08-02T02:30:00,0,20836772,192520
OK,154,52,949,154,2014-08-02T02:35:00,0,20837221,192520
OK,154,52,949,154,2014-08-02T02:40:00,0,20837670,192520
OK,154,52,949,154,2014-08-02T02:45:00,0,20838119,192520
OK,154,52,949,154,2014-08-02T02:50:00,0,20838568,192520
OK,154,52,949,154,2014-08-02T02:55:00,0,20839017,192520
OK,154,52,949,154,2014-08-02T03:00:00,0,20839466,192520
OK,154,52,949,154,2014-08-02T03:05:00,0,20839915,192520
OK,154,52,949,154,2014-08-02T03:10:00,0,20840364,192520
OK,154,52,949,154,2014-08-02T03:15:00,0,20840813,192520
OK,154,52,949,154,2014-08-02T03:20:00,0,20841262,192520
OK,154,52,949,154,2014-08-02T03:25:00,0,20841711,192520
OK,154,52,949,154,2014-08-02T03:30:00,0,20842160,192520
OK,154,52,949,154,2014-08-02T03:35:00,0,20842609,192520
OK,154,52,949,154,2014-08-02T03:40:00,0,20843058,192520
OK,154,52,949,154,2014-08-02T03:45:00,0,20843507,192520
OK,154,52,949,154,2014-08-02T03:50:00,0,20843956,192520
OK,154,52,949,154,2014-08-02T03:55:00,0,20844405,192520
OK,154,52,949,154,2014-08-02T06:00:00,0,20851859,192520
OK,154,52,949,154,2014-08-02T06:05:00,0,20852308,192520
OK,154,52,949,154,2014-08-02T06:10:00,0,20852757,192520
OK,154,52,949,154,2014-08-02T06:15:00,0,20853206,192520
OK,154,52,949,154,2014-08-02T06:20:00,0,20853655,192520
OK,154,52,949,154,2014-08-02T06:25:00,0,20854104,192520
OK,154,52,949,154,2014-08-02T06:30:00,0,20854553,192520
OK,154,52,949,154,2014-08-02T06:35:00,0,20855002,192520
OK,154,52,949,154,2014-08-02T06:40:00,0,20855451,192520
OK,154,52,949,154,2014-08-02T06:45:00,0,20855900,192520
OK,154,52,949,154,2014-08-02T06:50:00,0,20856349,192520
OK,154,52,949,154,2014-08-02T06:55:00,0,20856798,192520
OK,154,52,949,154,2014-08-02T07:00:00,0,20857247,192520
OK,154,52,949,154,2014-08-02T07:05:00,0,20857696,192520
OK,154,52,949,154,2014-08-02T07:10:00,0,20858145,192520
OK,194,41,949,194,2014-08-02T07:15:00,2,20858594,192520
OK,159,50,949,159,2014-08-02T07:20:00,1,20859043,192520
OK,159,50,949,159,2014-08-02T07:25:00,0,20859492,192520
OK,159,50,949,159,2014-08-02T07:30:00,0,20859941,192520
OK,159,50,949,159,2014-08-02T07:35:00,0,20860390,192520
OK,122,66,949,122,2014-08-02T07:40:00,1,20860839,192520
OK,122,66,949,122,2014-08-02T07:45:00,1,20861288,192520
OK,122,66,949,122,2014-08-02T07:50:00,0,20861737,192520
OK,145,55,949,145,2014-08-02T07:55:00,1,20862186,192520
OK,145,55,949,145,2014-08-02T08:00:00,0,20862635,192520
OK,145,55,949,145,2014-08-02T08:05:00,0,20863084,192520
OK,145,55,949,145,2014-08-02T08:10:00,0,20863533,192520
OK,156,51,949,156,2014-08-02T08:15:00,1,20863982,192520
OK,156,51,949,156,2014-08-02T08:20:00,0,20864431,192520
OK,156,51,949,156,2014-08-02T08:25:00,0,20864880,192520
OK,156,51,949,156,2014-08-02T08:30:00,0,20865329,192520
OK,173,46,949,173,2014-08-02T08:35:00,1,20865778,192520
OK,173,46,949,173,2014-08-02T08:40:00,0,20866227,192520
OK,141,57,949,141,2014-08-02T08:45:00,1,20866676,192520
OK,141,57,949,141,2014-08-02T08:50:00,0,20867125,192520
OK,141,57,949,141,2014-08-02T08:55:00,0,20867574,192520
OK,141,57,949,141,2014-08-02T09:00:00,0,20868023,192520
OK,167,48,949,167,2014-08-02T09:05:00,1,20868472,192520
OK,167,48,949,167,2014-08-02T09:10:00,1,20868921,192520
OK,167,48,949,167,2014-08-02T09:15:00,0,20869370,192520
OK,167,48,949,167,2014-08-02T09:20:00,0,20869819,192520
OK,167,48,949,167,2014-08-02T09:25:00,0,20870268,192520
OK,167,48,949,167,2014-08-02T09:30:00,0,20870717,192520
OK,162,49,949,162,2014-08-02T09:35:00,1,20871166,192520
OK,162,49,949,162,2014-08-02T09:40:00,1,20871615,192520
OK,162,49,949,162,2014-08-02T09:45:00,0,20872064,192520
OK,163,49,949,163,2014-08-02T09:50:00,1,20872513,192520
OK,163,49,949,163,2014-08-02T09:55:00,0,20872962,192520
OK,163,49,949,163,2014-08-02T10:00:00,0,20873411,192520
OK,156,51,949,156,2014-08-02T10:05:00,1,20873860,192520
OK,156,51,949,156,2014-08-02T10:10:00,1,20874309,192520
OK,172,47,949,172,2014-08-02T10:15:00,1,20874758,192520
OK,172,47,949,172,2014-08-02T10:20:00,0,20875207,192520
OK,172,47,949,172,2014-08-02T10:25:00,0,20875656,192520
OK,163,49,949,163,2014-08-02T10:30:00,1,20876105,192520
OK,167,48,949,167,2014-08-02T10:35:00,3,20876554,192520
OK,149,54,949,149,2014-08-02T10:40:00,5,20877003,192520
OK,149,54,949,149,2014-08-02T10:45:00,1,20877452,192520
OK,149,54,949,149,2014-08-02T10:50:00,0,20877901,192520
OK,138,58,949,138,2014-08-02T10:55:00,1,20878350,192520
OK,138,58,949,138,2014-08-02T11:00:00,1,20878799,192520
OK,138,58,949,138,2014-08-02T11:05:00,0,20879248,192520
OK,138,58,949,138,2014-08-02T11:10:00,0,20879697,192520
OK,138,58,949,138,2014-08-02T11:15:00,0,20880146,192520
OK,138,58,949,138,2014-08-02T11:20:00,0,20880595,192520
OK,138,58,949,138,2014-08-02T11:25:00,0,20881044,192520
OK,138,58,949,138,2014-08-02T11:30:00,0,20881493,192520
OK,138,58,949,138,2014-08-02T11:35:00,0,20881942,192520
OK,121,66,949,121,2014-08-02T11:40:00,1,20882391,192520
OK,121,66,949,121,2014-08-02T11:45:00,1,20882840,192520
OK,121,66,949,121,2014-08-02T11:50:00,0,20883289,192520
OK,115,70,949,115,2014-08-02T11:55:00,1,20883738,192520
OK,123,65,949,123,2014-08-02T12:00:00,2,20884187,192520
OK,131,61,949,131,2014-08-02T12:05:00,1,20884636,192520
OK,131,61,949,131,2014-08-02T12:10:00,0,20885085,192520
OK,131,61,949,131,2014-08-02T12:15:00,0,20885534,192520
OK,131,61,949,131,2014-08-02T12:20:00,0,20885983,192520
OK,228,35,949,228,2014-08-02T12:25:00,2,20886432,192520
OK,228,35,949,228,2014-08-02T12:30:00,2,20886881,192520
OK,128,63,949,128,2014-08-02T12:35:00,1,20887330,192520
OK,148,54,949,148,2014-08-02T12:40:00,2,20887779,192520
OK,133,60,949,133,2014-08-02T12:45:00,1,20888228,192520
OK,144,56,949,144,2014-08-02T12:50:00,2,20888677,192520
OK,144,56,949,144,2014-08-02T12:55:00,2,20889126,192520
OK,147,55,949,147,2014-08-02T13:00:00,2,20889575,192520
OK,155,52,949,155,2014-08-02T13:05:00,1,20890024,192520
OK,155,52,949,155,2014-08-02T13:10:00,1,20890473,192520
OK,155,52,949,155,2014-08-02T13:15:00,0,20890922,192520
OK,155,52,949,155,2014-08-02T13:20:00,0,20891371,192520
OK,155,52,949,155,2014-08-02T13:25:00,0,20891820,192520
OK,160,50,949,160,2014-08-02T13:30:00,1,20892269,192520
OK,160,50,949,160,2014-08-02T13:35:00,1,20892718,192520
OK,160,50,949,160,2014-08-02T13:40:00,0,20893167,192520
OK,160,50,949,160,2014-08-02T13:45:00,0,20893616,192520
OK,148,54,949,148,2014-08-02T13:50:00,1,20894065,192520
OK,147,55,949,147,2014-08-02T13:55:00,2,20894514,192520
OK,146,55,949,146,2014-08-02T14:00:00,0,20894963,192520
OK,146,55,949,146,2014-08-02T14:05:00,0,20895412,192520
OK,223,36,949,223,2014-08-02T14:10:00,1,20895861,192520
OK,150,53,949,150,2014-08-02T14:15:00,1,20896310,192520
OK,150,53,949,150,2014-08-02T14:20:00,1,20896759,192520
OK,150,53,949,150,2014-08-02T14:25:00,0,20897208,192520
OK,150,53,949,150,2014-08-02T14:30:00,0,20897657,192520
OK,150,53,949,150,2014-08-02T14:35:00,0,20898106,192520
OK,139,58,949,139,2014-08-02T14:40:00,1,20898555,192520
OK,139,58,949,139,2014-08-02T14:45:00,1,20899004,192520
OK,139,58,949,139,2014-08-02T14:50:00,0,20899453,192520
OK,139,58,949,139,2014-08-02T14:55:00,0,20899902,192520
OK,147,55,949,147,2014-08-02T15:00:00,1,20900351,192520
OK,147,55,949,147,2014-08-02T15:05:00,0,20900800,192520
OK,147,55,949,147,2014-08-02T15:10:00,0,20901249,192520
OK,147,55,949,147,2014-08-02T15:15:00,0,20901698,192520
OK,130,62,949,130,2014-08-02T15:20:00,1,20902147,192520
OK,130,62,949,130,2014-08-02T15:25:00,1,20902596,192520
OK,214,37,949,214,2014-08-02T15:30:00,2,20903045,192520
OK,214,37,949,214,2014-08-02T15:35:00,2,20903494,192520
OK,138,58,949,138,2014-08-02T15:40:00,0,20903943,192520
OK,138,58,949,138,2014-08-02T15:45:00,0,20904392,192520
OK,126,64,949,126,2014-08-02T15:50:00,1,20904841,192520
OK,126,64,949,126,2014-08-02T15:55:00,0,20905290,192520
OK,126,64,949,126,2014-08-02T16:00:00,0,20905739,192520
OK,139,58,949,139,2014-08-02T16:05:00,1,20906188,192520
OK,139,58,949,139,2014-08-02T16:10:00,0,20906637,192520
OK,139,58,949,139,2014-08-02T16:15:00,0,20907086,192520
OK,139,58,949,139,2014-08-02T16:20:00,0,20907535,192520
OK,139,58,949,139,2014-08-02T16:25:00,0,20907984,192520
OK,139,58,949,139,2014-08-02T16:30:00,0,20908433,192520
OK,139,58,949,139,2014-08-02T16:35:00,0,20908882,192520
OK,139,58,949,139,2014-08-02T16:40:00,0,20909331,192520
OK,139,58,949,139,2014-08-02T16:45:00,0,20909780,192520
OK,139,58,949,139,2014-08-02T16:50:00,0,20910229,192520
OK,139,58,949,139,2014-08-02T16:55:00,0,20910678,192520
OK,139,58,949,139,2014-08-02T17:00:00,0,20911127,192520
OK,139,58,949,139,2014-08-02T17:05:00,0,20911576,192520
OK,139,58,949,139,2014-08-02T17:10:00,0,20912025,192520
OK,145,55,949,145,2014-08-02T17:15:00,1,20912474,192520
OK,145,55,949,145,2014-08-02T17:20:00,1,20912923,192520
OK,145,55,949,145,2014-08-02T17:25:00,0,20913372,192520
OK,145,55,949,145,2014-08-02T17:30:00,0,20913821,192520
OK,145,55,949,145,2014-08-02T17:35:00,0,20914270,192520
OK,145,55,949,145,2014-08-02T17:40:00,0,20914719,192520
OK,145,55,949,145,2014-08-02T17:45:00,0,20915168,192520
OK,145,55,949,145,2014-08-02T17:50:00,0,20915617,192520
OK,145,55,949,145,2014-08-02T17:55:00,0,20916066,192520
OK,145,55,949,145,2014-08-02T18:00:00,0,20916515,192520
OK,145,55,949,145,2014-08-02T18:05:00,0,20916964,192520
OK,145,55,949,145,2014-08-02T18:10:00,0,20917413,192520
OK,145,55,949,145,2014-08-02T18:15:00,0,20917862,192520
OK,145,55,949,145,2014-08-02T18:20:00,0,20918311,192520
OK,145,55,949,145,2014-08-02T18:25:00,0,20918760,192520
OK,145,55,949,145,2014-08-02T18:30:00,0,20919209,192520
OK,145,55,949,145,2014-08-02T18:35:00,0,20919658,192520
OK,145,55,949,145,2014-08-02T18:40:00,0,20920107,192520
OK,145,55,949,145,2014-08-02T18:45:00,0,20920556,192520
OK,145,55,949,145,2014-08-02T18:50:00,0,20921005,192520
OK,145,55,949,145,2014-08-02T18:55:00,0,20921454,192520
OK,145,55,949,145,2014-08-02T19:00:00,0,20921903,192520
OK,145,55,949,145,2014-08-02T19:05:00,0,20922352,192520
OK,145,55,949,145,2014-08-02T19:10:00,0,20922801,192520
OK,145,55,949,145,2014-08-02T19:15:00,0,20923250,192520
OK,145,55,949,145,2014-08-02T19:20:00,0,20923699,192520
OK,145,55,949,145,2014-08-02T19:25:00,0,20924148,192520
OK,145,55,949,145,2014-08-02T19:30:00,0,20924597,192520
OK,145,55,949,145,2014-08-02T19:35:00,0,20925046,192520
OK,145,55,949,145,2014-08-02T19:40:00,0,20925495,192520
OK,145,55,949,145,2014-08-02T19:45:00,0,20925944,192520
OK,145,55,949,145,2014-08-02T19:50:00,0,20926393,192520
OK,145,55,949,145,2014-08-02T19:55:00,0,20926842,192520
OK,145,55,949,145,2014-08-02T20:00:00,0,20927291,192520
OK,145,55,949,145,2014-08-02T20:05:00,0,20927740,192520
OK,145,55,949,145,2014-08-02T20:10:00,0,20928189,192520
OK,145,55,949,145,2014-08-02T20:15:00,0,20928638,192520
OK,145,55,949,145,2014-08-02T20:20:00,0,20929087,192520
OK,145,55,949,145,2014-08-02T20:25:00,0,20929536,192520
OK,145,55,949,145,2014-08-02T20:30:00,0,20929985,192520
OK,145,55,949,145,2014-08-02T20:35:00,0,20930434,192520
OK,145,55,949,145,2014-08-02T20:40:00,0,20930883,192520
OK,145,55,949,145,2014-08-02T20:45:00,0,20931332,192520
OK,145,55,949,145,2014-08-02T20:50:00,0,20931781,192520
OK,145,55,949,145,2014-08-02T20:55:00,0,20932230,192520
OK,145,55,949,145,2014-08-02T21:00:00,0,20932679,192520
OK,145,55,949,145,2014-08-02T21:05:00,0,20933128,192520
OK,145,55,949,145,2014-08-02T21:10:00,0,20933577,192520
OK,145,55,949,145,2014-08-02T21:15:00,0,20934026,192520
OK,145,55,949,145,2014-08-02T21:20:00,0,20934475,192520
OK,145,55,949,145,2014-08-02T21:25:00,0,20934924,192520
OK,145,55,949,145,2014-08-02T21:30:00,0,20935373,192520
OK,145,55,949,145,2014-08-02T21:35:00,0,20935822,192520
OK,145,55,949,145,2014-08-02T21:40:00,0,20936271,192520
OK,145,55,949,145,2014-08-02T21:45:00,0,20936720,192520
OK,145,55,949,145,2014-08-02T21:50:00,0,20937169,192520
OK,145,55,949,145,2014-08-02T21:55:00,0,20937618,192520
OK,145,55,949,145,2014-08-02T22:00:00,0,20938067,192520
OK,145,55,949,145,2014-08-02T22:05:00,0,20938516,192520
OK,145,55,949,145,2014-08-02T22:10:00,0,20938965,192520
OK,145,55,949,145,2014-08-02T22:15:00,0,20939414,192520
OK,145,55,949,145,2014-08-02T22:20:00,0,20939863,192520
OK,145,55,949,145,2014-08-02T22:25:00,0,20940312,192520
OK,145,55,949,145,2014-08-02T22:30:00,0,20940761,192520
OK,145,55,949,145,2014-08-02T22:35:00,0,20941210,192520
OK,145,55,949,145,2014-08-02T22:40:00,0,20941659,192520
OK,145,55,949,145,2014-08-02T22:45:00,0,20942108,192520
OK,145,55,949,145,2014-08-02T22:50:00,0,20942557,192520
OK,145,55,949,145,2014-08-02T22:55:00,0,20943006,192520
OK,145,55,949,145,2014-08-02T23:00:00,0,20943455,192520
OK,145,55,949,145,2014-08-02T23:10:00,0,20943904,192520
OK,145,55,949,145,2014-08-02T23:15:00,0,20944353,192520
OK,145,55,949,145,2014-08-02T23:20:00,0,20944802,192520
OK,145,55,949,145,2014-08-02T23:25:00,0,20945251,192520
OK,145,55,949,145,2014-08-02T23:30:00,0,20945700,192520
OK,145,55,949,145,2014-08-02T23:35:00,0,20946149,192520
OK,145,55,949,145,2014-08-02T23:40:00,0,20946598,192520
OK,145,55,949,145,2014-08-02T23:45:00,0,20947047,192520
OK,145,55,949,145,2014-08-02T23:50:00,0,20947496,192520
OK,145,55,949,145,2014-08-02T23:55:00,0,20947945,192520
OK,145,55,949,145,2014-08-03T00:00:00,0,20948394,192520
OK,145,55,949,145,2014-08-03T00:05:00,0,20948843,192520
OK,145,55,949,145,2014-08-03T00:10:00,0,20949291,192520
OK,145,55,949,145,2014-08-03T00:15:00,0,20949740,192520
OK,145,55,949,145,2014-08-03T00:20:00,0,20950189,192520
OK,145,55,949,145,2014-08-03T00:25:00,0,20950638,192520
OK,145,55,949,145,2014-08-03T00:30:00,0,20951087,192520
OK,145,55,949,145,2014-08-03T00:35:00,0,20951536,192520
OK,145,55,949,145,2014-08-03T00:40:00,0,20951985,192520
OK,145,55,949,145,2014-08-03T00:45:00,0,20952434,192520
OK,145,55,949,145,2014-08-03T00:50:00,0,20952883,192520
OK,145,55,949,145,2014-08-03T00:55:00,0,20953332,192520
OK,145,55,949,145,2014-08-03T01:00:00,0,20953781,192520
OK,145,55,949,145,2014-08-03T01:05:00,0,20954230,192520
OK,145,55,949,145,2014-08-03T01:10:00,0,20954679,192520
OK,145,55,949,145,2014-08-03T01:15:00,0,20955128,192520
OK,145,55,949,145,2014-08-03T01:20:00,0,20955577,192520